CW4778 Weather Reports


Display with metric or nautical units.
time (UTC)temp
F
wind
direction
speed
MPH
gust
MPH
rain 1hr
in
rain 24hr
in
rain mn
in
humidity
%
barometer
mb
20260509223304 63 235 7.0 14.0 0.00 0.36 0.02 93 1007.0
20260509222307 61 231 8.0 16.0 0.00 0.40 0.02 96 1007.1
20260509221305 59 222 8.0 14.0 0.00 0.41 0.02 98 1006.9
20260509220804 59 246 12.0 17.0 0.00 0.41 0.02 97 1006.9
20260509220304 60 228 9.0 16.0 0.00 0.41 0.02 97 1006.9
20260509214305 59 235 9.0 16.0 0.00 0.41 0.02 100 1006.9
20260509213305 59 234 9.0 14.0 0.00 0.41 0.02 100 1006.9
20260509210805 57 244 9.0 16.0 0.00 0.41 0.02 100 1007.0
20260509210305 57 225 7.0 16.0 0.00 0.41 0.02 100 1006.8
20260509204305 55 232 6.0 9.0 0.01 0.41 0.02 100 1006.8
20260509201805 54 273 2.0 7.0 0.01 0.41 0.02 100 1006.5
20260509201304 54 244 0.0 2.0 0.01 0.41 0.02 100 1006.5
20260509200305 53 244 1.0 5.0 0.01 0.41 0.02 100 1006.3
20260509195804 53 244 0.0 3.0 0.00 0.40 0.02 100 1006.3
20260509195306 52 245 0.0 2.0 0.00 0.40 0.02 100 1006.2
20260509194805 52 245 1.0 2.0 0.00 0.40 0.02 100 1006.2
20260509193804 52 245 0.0 1.0 0.00 0.40 0.02 100 1006.2
20260509193305 52 245 0.0 2.0 0.00 0.40 0.02 100 1006.2
20260509192306 51 245 0.0 3.0 0.00 0.40 0.02 100 1006.1
20260509191804 51 245 0.0 2.0 0.00 0.40 0.02 100 1006.1
20260509191305 51 245 0.0 2.0 0.00 0.40 0.02 100 1006.1
20260509190804 52 244 0.0 1.0 0.00 0.40 0.02 100 1006.0
20260509185804 52 245 3.0 6.0 0.00 0.40 0.02 100 1005.9
20260509185306 52 237 2.0 9.0 0.00 0.40 0.02 100 1005.9
20260509184804 53 227 5.0 13.0 0.00 0.40 0.02 100 1006.0
20260509184304 52 258 2.0 5.0 0.00 0.40 0.02 100 1006.1
20260509181804 52 218 3.0 10.0 0.00 0.40 0.02 100 1005.9
20260509181305 52 232 9.0 16.0 0.00 0.40 0.02 100 1005.9
20260509180804 51 232 5.0 13.0 0.00 0.40 0.02 100 1005.8
20260509180305 50 243 2.0 5.0 0.00 0.40 0.02 100 1005.7
20260509174805 50 229 0.0 0.0 0.00 0.40 0.02 100 1005.5
20260509172804 50 229 0.0 1.0 0.00 0.40 0.02 100 1005.4
20260509172306 50 230 1.0 3.0 0.00 0.40 0.02 100 1005.3
20260509171804 50 229 0.0 1.0 0.00 0.40 0.02 100 1005.3
20260509165804 50 229 1.0 3.0 0.00 0.40 0.02 100 1005.2
20260509165306 50 229 2.0 5.0 0.00 0.40 0.02 100 1005.1
20260509164305 50 226 2.0 3.0 0.00 0.40 0.02 100 1005.1
20260509163305 50 236 2.0 6.0 0.00 0.40 0.02 100 1005.0
20260509162307 51 238 1.0 3.0 0.00 0.40 0.02 100 1005.0
20260509161804 51 238 0.0 1.0 0.00 0.40 0.02 100 1005.1
20260509161304 51 238 0.0 1.0 0.00 0.40 0.02 100 1005.1
20260509160804 51 238 0.0 1.0 0.00 0.40 0.02 100 1005.1
20260509160305 51 238 0.0 0.0 0.00 0.40 0.02 100 1005.1
20260509155804 51 238 0.0 0.0 0.00 0.40 0.02 99 1005.0
20260509153804 52 237 0.0 1.0 0.00 0.40 0.02 100 1005.1
20260509152804 52 237 0.0 2.0 0.00 0.40 0.02 100 1005.2
20260509152306 52 237 0.0 1.0 0.00 0.40 0.02 100 1005.2
20260509151307 52 238 0.0 0.0 0.00 0.40 0.02 100 1005.3
20260509145306 52 240 1.0 5.0 0.00 0.40 0.02 100 1005.3
20260509144304 52 226 3.0 7.0 0.00 0.40 0.02 99 1005.3
20260509142805 53 226 3.0 6.0 0.00 0.40 0.02 100 1005.5
20260509142307 53 224 3.0 5.0 0.00 0.40 0.02 100 1005.6
20260509141305 54 239 4.0 7.0 0.00 0.40 0.02 100 1005.5
20260509135805 54 232 2.0 3.0 0.00 0.40 0.02 100 1005.5
20260509134304 55 231 1.0 3.0 0.00 0.40 0.02 100 1005.5
20260509133305 54 228 2.0 6.0 0.00 0.40 0.02 100 1005.4
20260509132804 54 227 3.0 6.0 0.00 0.40 0.02 99 1005.4
20260509132306 54 229 1.0 3.0 0.00 0.40 0.02 99 1005.3
20260509131805 54 230 1.0 2.0 0.01 0.40 0.02 100 1005.2
20260509131305 55 230 2.0 6.0 0.02 0.40 0.02 100 1005.3
20260509130804 55 225 2.0 5.0 0.02 0.40 0.02 100 1005.3
20260509125307 55 234 1.0 3.0 0.02 0.41 0.02 100 1005.3
20260509124804 55 234 3.0 6.0 0.02 0.41 0.02 99 1005.4
20260509124305 55 223 3.0 6.0 0.03 0.41 0.02 100 1005.5
20260509123804 56 229 4.0 6.0 0.03 0.41 0.02 100 1005.5
20260509123305 56 224 3.0 6.0 0.03 0.41 0.02 100 1005.6
20260509122805 56 230 1.0 3.0 0.04 0.43 0.02 100 1005.7
20260509122306 56 235 2.0 6.0 0.05 0.45 0.02 100 1005.7
20260509121805 56 237 3.0 6.0 0.06 0.44 0.01 100 1005.8
20260509120842 56 285 0.0 1.0 0.20 0.44 0.00 100 1005.8
20260509115805 56 286 0.0 0.0 0.20 0.44 0.44 100 1005.8
20260509113805 56 285 1.0 3.0 0.19 0.43 0.43 100 1006.1
20260509113304 56 285 1.0 2.0 0.19 0.43 0.43 100 1006.1
20260509111306 56 243 5.0 7.0 0.08 0.39 0.31 99 1006.3
20260509110805 56 207 3.0 6.0 0.02 0.33 0.25 99 1006.3
20260509104805 55 266 1.0 2.0 0.00 0.31 0.24 99 1005.8
20260509104305 55 266 1.0 6.0 0.00 0.31 0.24 99 1005.7
20260509103805 55 266 2.0 3.0 0.00 0.31 0.24 99 1005.7
20260509102805 55 266 2.0 5.0 0.00 0.31 0.24 99 1005.6
20260509102306 55 266 2.0 3.0 0.00 0.31 0.24 99 1005.6
20260509101804 55 266 1.0 3.0 0.00 0.31 0.24 99 1005.8
20260509101305 55 266 2.0 3.0 0.01 0.31 0.24 99 1005.9
20260509095306 55 274 3.0 5.0 0.01 0.31 0.24 99 1005.7
20260509094304 55 275 3.0 6.0 0.01 0.31 0.24 99 1005.6
20260509091805 56 275 3.0 7.0 0.01 0.34 0.24 99 1005.6
20260509090805 56 286 5.0 8.0 0.00 0.34 0.23 99 1005.8
20260509082804 56 310 7.0 12.0 0.03 0.35 0.23 99 1006.1
20260509082307 56 313 5.0 9.0 0.03 0.35 0.23 99 1006.1
20260509081805 56 296 6.0 8.0 0.04 0.35 0.23 99 1006.1
20260509081305 57 271 3.0 6.0 0.05 0.35 0.23 99 1006.1
20260509080804 56 280 2.0 7.0 0.05 0.35 0.23 99 1006.1
20260509080304 57 281 2.0 5.0 0.06 0.35 0.23 99 1006.1
20260509075306 57 280 3.0 8.0 0.06 0.35 0.22 99 1006.0
20260509074305 57 290 3.0 8.0 0.06 0.35 0.22 99 1006.0
20260509073305 57 281 6.0 10.0 0.05 0.35 0.21 99 1006.1
20260509072804 58 253 7.0 12.0 0.04 0.34 0.20 99 1006.1
20260509070804 58 277 6.0 8.0 0.04 0.32 0.18 98 1005.7
20260509070305 58 267 3.0 10.0 0.03 0.31 0.17 98 1005.6
20260509063805 59 264 4.0 9.0 0.02 0.31 0.17 98 1005.4
20260509063304 59 278 5.0 7.0 0.02 0.31 0.17 98 1005.4
20260509062306 59 268 3.0 10.0 0.02 0.31 0.16 97 1005.4
20260509060805 60 279 1.0 5.0 0.00 0.29 0.14 96 1005.1
20260509055306 61 267 3.0 6.0 0.00 0.30 0.14 95 1005.1
20260509054804 61 285 4.0 10.0 0.00 0.30 0.14 95 1005.2
20260509053805 61 281 6.0 9.0 0.00 0.30 0.14 95 1005.1
20260509053305 61 278 4.0 8.0 0.00 0.30 0.14 95 1005.1
20260509052307 61 295 5.0 9.0 0.00 0.30 0.14 95 1005.0
20260509051804 61 284 4.0 9.0 0.00 0.30 0.14 95 1004.9
20260509050805 61 277 6.0 12.0 0.00 0.30 0.14 96 1005.1
20260509045804 61 279 3.0 13.0 0.00 0.30 0.14 96 1005.1
20260509044305 61 265 3.0 7.0 0.00 0.30 0.14 96 1005.1
20260509043805 61 273 3.0 6.0 0.01 0.30 0.14 96 1005.1
20260509043304 61 277 3.0 6.0 0.01 0.30 0.14 96 1005.1
20260509042804 61 273 3.0 6.0 0.01 0.30 0.14 96 1005.1
20260509042307 61 267 3.0 6.0 0.01 0.30 0.14 96 1005.2
20260509040305 61 280 2.0 7.0 0.01 0.30 0.14 95 1005.2
20260509035306 61 256 2.0 8.0 0.01 0.30 0.14 94 1005.4
20260509034305 63 265 6.0 9.0 0.01 0.30 0.14 93 1005.6
20260509033804 63 266 6.0 12.0 0.00 0.29 0.13 92 1005.6
20260509032804 63 266 7.0 13.0 0.00 0.29 0.13 92 1005.9
20260509032306 63 266 7.0 13.0 0.00 0.29 0.13 92 1006.0
20260509031805 63 266 10.0 14.0 0.00 0.29 0.13 91 1005.9
20260509031305 63 266 9.0 18.0 0.00 0.29 0.13 90 1006.0
20260509030805 64 266 5.0 10.0 0.00 0.29 0.13 90 1005.9
20260509025805 64 268 6.0 10.0 0.00 0.29 0.13 90 1006.0
20260509025307 64 267 6.0 14.0 0.00 0.29 0.13 90 1005.8
20260509024805 64 263 7.0 9.0 0.00 0.29 0.13 92 1005.7
20260509023805 63 265 6.0 15.0 0.00 0.29 0.13 92 1005.7
20260509023305 63 264 5.0 13.0 0.00 0.29 0.13 92 1005.7
20260509021805 64 256 6.0 12.0 0.00 0.29 0.13 89 1005.7
20260509021305 64 251 10.0 13.0 0.00 0.29 0.13 89 1005.7
20260509020805 64 259 7.0 13.0 0.00 0.29 0.13 89 1005.8
20260509020305 65 259 7.0 12.0 0.00 0.29 0.13 90 1005.7
20260509015805 65 268 9.0 15.0 0.00 0.29 0.13 90 1005.7
20260509015306 64 267 8.0 14.0 0.00 0.29 0.13 91 1005.7
20260509013805 64 263 6.0 12.0 0.00 0.29 0.13 94 1005.7
20260509012805 63 253 7.0 10.0 0.00 0.29 0.13 94 1005.8
20260509011804 63 270 5.0 12.0 0.01 0.29 0.13 95 1006.0
20260509010305 62 259 6.0 10.0 0.01 0.29 0.13 96 1006.3
20260509005805 62 260 7.0 10.0 0.01 0.29 0.13 96 1006.5
20260509005306 61 252 7.0 12.0 0.01 0.29 0.13 96 1006.6
20260509004805 62 251 7.0 13.0 0.02 0.29 0.13 97 1006.7
20260509002805 62 254 15.0 24.0 0.02 0.29 0.13 94 1007.2
20260509000805 64 270 9.0 13.0 0.02 0.28 0.13 96 1007.3
20260509000305 64 264 4.0 12.0 0.02 0.28 0.13 96 1007.4
20260508234804 66 272 9.0 13.0 0.01 0.27 0.11 94 1007.7
20260508233305 66 280 7.0 10.0 0.01 0.27 0.11 93 1008.0
20260508231805 65 280 5.0 8.0 0.06 0.27 0.11 96 1008.1
20260508230805 64 274 4.0 8.0 0.06 0.27 0.11 98 1008.2
20260508230305 64 265 2.0 6.0 0.06 0.27 0.11 99 1008.2
20260508225306 61 260 1.0 3.0 0.05 0.26 0.10 99 1008.4
20260508224805 61 267 3.0 6.0 0.05 0.26 0.10 99 1008.4
20260508224305 60 249 3.0 6.0 0.05 0.26 0.10 98 1008.5
20260508223805 61 273 3.0 10.0 0.05 0.26 0.10 98 1008.5